This is the latest recevied weather packets stored in our database for station/object JH0KSP-13. If no packets are shown the sender has not sent any weather packets the latest 10 day(s).
| Time | Temp. | Humidity | Pressure | Rain* | Wind** | Luminosity | Snow |
|---|---|---|---|---|---|---|---|
| 1777795809 | 17.22° C | 75% | 1008.8 hPa | 0 mm | - | - | - |
| 1777795615 | 17.22° C | 73% | 1008.7 hPa | 0 mm | - | - | - |
| 1777794608 | 17.22° C | 66% | 1008.9 hPa | 0 mm | - | - | - |
| 1777794416 | 17.78° C | 65% | 1008.9 hPa | 0 mm | - | - | - |
| 1777794010 | 17.78° C | 63% | 1009.1 hPa | 0 mm | - | - | - |
| 1777793409 | 17.78° C | 60% | 1008.9 hPa | 0 mm | - | - | - |
| 1777793217 | 17.78° C | 60% | 1008.8 hPa | 0 mm | - | - | - |
| 1777792016 | 17.78° C | 59% | 1008.8 hPa | 0 mm | - | - | - |
| 1777790816 | 18.89° C | 61% | 1008.7 hPa | 0 mm | - | - | - |
| 1777790408 | 18.89° C | 60% | 1008.7 hPa | 0 mm | - | - | - |
| 1777789808 | 18.89° C | 59% | 1008.9 hPa | 0 mm | - | - | - |
| 1777789615 | 18.89° C | 59% | 1009 hPa | 0 mm | - | - | - |
| 1777788416 | 20° C | 57% | 1009 hPa | 0 mm | - | - | - |
| 1777788009 | 20° C | 55% | 1008.9 hPa | 0 mm | - | - | - |
| 1777787409 | 20° C | 54% | 1009.1 hPa | 0 mm | - | - | - |
| 1777787216 | 20° C | 53% | 1009.2 hPa | 0 mm | - | - | - |
| 1777786017 | 20° C | 50% | 1009.4 hPa | 0 mm | - | - | - |
| 1777785009 | 20° C | 50% | 1009.8 hPa | 0 mm | - | - | - |
| 1777784815 | 20° C | 49% | 1009.8 hPa | 0 mm | - | - | - |
| 1777783616 | 20° C | 47% | 1009.9 hPa | 0 mm | - | - | - |
| 1777782417 | 21.11° C | 47% | 1010.1 hPa | 0 mm | - | - | - |
| 1777781216 | 21.11° C | 45% | 1010.4 hPa | 0 mm | - | - | - |
| 1777780015 | 21.11° C | 44% | 1010.8 hPa | 0 mm | - | - | - |
| 1777779008 | 21.11° C | 46% | 1011.2 hPa | 0 mm | - | - | - |
| 1777778816 | 21.11° C | 48% | 1011.3 hPa | 0 mm | - | - | - |
* Rain latest hour (hover to see other rain measurements)
** Current wind speed in m/s (hover to see current wind gust speed)